WA4FG Weather Reports


Display with metric or nautical units.
time (UTC)temp
F
wind
direction
speed
MPH
gust
MPH
rain 1hr
in
rain 24hr
in
rain mn
in
humidity
%
barometer
mb
20260506220323 73 158 0.0 0.0 0.02 0.19 0.19 96 1011.5
20260506215821 73 158 0.0 0.0 0.03 0.19 0.19 96 1011.6
20260506214819 73 158 0.0 2.0 0.11 0.19 0.19 96 1011.4
20260506214320 73 158 0.0 2.0 0.18 0.19 0.19 95 1011.5
20260506213758 73 158 0.0 1.0 0.18 0.18 0.18 95 1011.5
20260506213242 73 153 0.0 2.0 0.18 0.18 0.18 95 1011.5
20260506211659 74 158 0.0 1.0 0.18 0.18 0.18 93 1011.8
20260506211156 74 148 0.0 0.0 0.17 0.17 0.17 93 1011.8
20260506210633 74 146 0.0 0.0 0.17 0.17 0.17 92 1011.8
20260506210134 74 146 0.0 0.0 0.17 0.17 0.17 91 1012.0
20260506205104 75 146 0.0 0.0 0.14 0.14 0.14 88 1011.9
20260506204537 75 151 0.0 1.0 0.04 0.04 0.05 86 1012.0
20260506204032 76 151 0.0 0.0 0.00 0.00 0.00 85 1012.0
20260506203508 76 169 0.0 4.0 0.00 0.00 0.00 85 1011.8
20260506202958 76 169 0.0 4.0 0.00 0.00 0.00 83 1011.8
20260506202459 76 169 0.0 2.0 0.00 0.00 0.00 83 1011.7
20260506201936 76 171 0.0 2.0 0.00 0.00 0.00 82 1011.9
20260506201415 76 130 0.0 2.0 0.00 0.00 0.00 81 1012.0
20260506200913 77 65 0.0 2.0 0.00 0.00 0.00 81 1012.1
20260506200348 77 320 0.0 5.0 0.00 0.00 0.00 81 1012.1
20260506195849 77 90 0.0 5.0 0.00 0.00 0.00 80 1012.2
20260506195348 77 144 0.0 1.0 0.00 0.00 0.00 81 1012.2
20260506194849 77 145 0.0 6.0 0.00 0.00 0.00 81 1012.4
20260506194340 77 148 0.0 6.0 0.00 0.00 0.00 81 1012.6
20260506193838 77 108 0.0 1.0 0.00 0.00 0.00 80 1012.7
20260506193339 77 182 0.0 1.0 0.00 0.00 0.00 80 1012.9
20260506192330 77 126 0.0 1.0 0.00 0.00 0.00 79 1013.0
20260506191828 77 126 0.0 6.0 0.00 0.00 0.00 79 1013.1
20260506191326 77 172 0.0 6.0 0.00 0.00 0.00 79 1013.1
20260506190805 77 103 0.0 5.0 0.00 0.00 0.00 80 1013.0
20260506190246 77 171 0.0 5.0 0.00 0.00 0.00 79 1013.2
20260506185746 77 173 0.0 5.0 0.00 0.00 0.00 79 1013.3
20260506185246 77 165 1.0 9.0 0.00 0.00 0.00 78 1013.2
20260506184719 77 202 1.0 8.0 0.00 0.00 0.00 78 1013.3
20260506184209 77 117 1.0 7.0 0.00 0.00 0.00 78 1013.2
20260506183706 77 130 0.0 5.0 0.00 0.00 0.00 78 1013.3
20260506183205 77 103 1.0 5.0 0.00 0.00 0.00 78 1013.3
20260506182702 77 93 0.0 5.0 0.00 0.00 0.00 78 1013.4
20260506182147 77 96 0.0 5.0 0.00 0.00 0.00 78 1013.4
20260506180536 77 165 0.0 5.0 0.00 0.00 0.00 77 1013.5
20260506180014 78 169 1.0 8.0 0.00 0.00 0.00 76 1013.4
20260506175507 78 169 1.0 8.0 0.00 0.00 0.00 76 1013.4
20260506175007 78 107 1.0 6.0 0.00 0.00 0.00 76 1013.4
20260506174458 78 108 1.0 6.0 0.00 0.00 0.00 75 1013.5
20260506173958 78 230 1.0 6.0 0.00 0.00 0.00 75 1013.7
20260506173459 78 0 1.0 6.0 0.00 0.00 0.00 74 1013.6
20260506172954 79 350 1.0 6.0 0.00 0.00 0.00 73 1013.5
20260506171951 79 142 1.0 7.0 0.00 0.00 0.00 74 1013.7
20260506171448 79 112 0.0 1.0 0.00 0.00 0.00 74 1013.7
20260506170914 78 112 1.0 7.0 0.00 0.00 0.00 76 1013.7
20260506170412 78 112 1.0 7.0 0.00 0.00 0.00 74 1013.7
20260506165852 78 62 0.0 5.0 0.00 0.00 0.00 74 1013.7
20260506165352 78 67 0.0 5.0 0.00 0.00 0.00 74 1013.8
20260506164827 78 325 0.0 4.0 0.00 0.00 0.00 74 1013.9
20260506164315 78 88 0.0 4.0 0.00 0.00 0.00 74 1013.8
20260506163812 78 88 1.0 4.0 0.00 0.00 0.00 76 1013.8
20260506163311 78 80 1.0 6.0 0.00 0.00 0.00 73 1013.9
20260506162216 78 77 0.0 5.0 0.00 0.00 0.00 73 1013.7
20260506161701 78 81 0.0 4.0 0.00 0.00 0.00 73 1013.7
20260506161134 78 150 1.0 7.0 0.00 0.00 0.00 74 1013.6
20260506160555 78 151 2.0 7.0 0.00 0.00 0.00 74 1013.6
20260506160104 77 150 1.0 7.0 0.00 0.00 0.00 76 1013.6
20260506155547 77 157 1.0 7.0 0.00 0.00 0.00 74 1013.7
20260506155036 77 92 1.0 5.0 0.00 0.00 0.00 74 1013.8
20260506154534 77 141 0.0 2.0 0.00 0.00 0.00 75 1013.7
20260506153441 76 141 1.0 6.0 0.00 0.00 0.00 78 1013.8
20260506152922 75 134 0.0 5.0 0.00 0.00 0.00 78 1013.7
20260506152412 75 128 1.0 8.0 0.00 0.00 0.00 79 1013.8
20260506151853 75 46 0.0 8.0 0.00 0.00 0.00 78 1013.9
20260506151327 75 131 0.0 4.0 0.00 0.00 0.00 79 1013.9
20260506150800 74 112 0.0 5.0 0.00 0.00 0.00 80 1014.0
20260506150304 74 151 0.0 5.0 0.00 0.00 0.00 80 1014.0
20260506145754 74 125 0.0 1.0 0.00 0.00 0.00 81 1013.9
20260506145250 74 231 0.0 5.0 0.00 0.00 0.00 81 1014.0
20260506144739 73 157 0.0 5.0 0.00 0.00 0.00 81 1014.1
20260506144214 73 184 0.0 4.0 0.00 0.00 0.00 82 1014.1
20260506143654 73 132 0.0 7.0 0.00 0.00 0.00 82 1014.1
20260506143154 73 180 1.0 7.0 0.00 0.00 0.00 83 1014.2
20260506142652 72 75 1.0 7.0 0.00 0.00 0.00 83 1014.0
20260506142152 72 162 0.0 8.0 0.00 0.00 0.00 84 1014.0
20260506141650 72 38 0.0 8.0 0.00 0.00 0.00 84 1014.1
20260506140619 71 211 1.0 6.0 0.00 0.00 0.00 85 1014.2
20260506140104 71 183 1.0 6.0 0.00 0.00 0.00 86 1014.0
20260506135020 70 168 1.0 6.0 0.00 0.00 0.00 86 1014.1
20260506134008 70 188 0.0 6.0 0.00 0.00 0.00 87 1014.3
20260506133442 70 169 0.0 5.0 0.00 0.00 0.00 88 1014.3
20260506132926 70 130 0.0 6.0 0.00 0.00 0.00 88 1014.3
20260506132411 70 162 0.0 6.0 0.00 0.00 0.00 89 1014.3
20260506131845 69 140 0.0 2.0 0.00 0.00 0.00 89 1014.3
20260506131331 69 144 0.0 5.0 0.00 0.00 0.00 89 1014.5
20260506130819 69 145 0.0 5.0 0.00 0.00 0.00 89 1014.5
20260506130254 69 84 0.0 2.0 0.00 0.00 0.00 89 1014.5
20260506125727 69 92 0.0 2.0 0.00 0.00 0.00 89 1014.5
20260506125202 69 103 0.0 2.0 0.00 0.00 0.00 89 1014.4
20260506124635 69 103 0.0 1.0 0.00 0.00 0.00 89 1014.4
20260506124124 68 32 0.0 4.0 0.00 0.00 0.00 89 1014.3
20260506123118 68 157 0.0 5.0 0.00 0.00 0.00 89 1014.3
20260506122615 68 130 0.0 4.0 0.00 0.00 0.00 89 1014.2
20260506122049 68 164 0.0 1.0 0.00 0.00 0.00 89 1014.1
20260506121546 68 142 0.0 4.0 0.00 0.00 0.00 89 1014.0
20260506121035 68 142 0.0 4.0 0.00 0.00 0.00 89 1013.9
20260506120533 68 174 0.0 0.0 0.00 0.00 0.00 89 1013.7
20260506120007 68 174 0.0 4.0 0.00 0.00 0.00 89 1013.6
20260506115441 68 174 0.0 5.0 0.00 0.00 0.00 89 1013.5
20260506114938 68 174 0.0 5.0 0.00 0.00 0.00 88 1013.3
20260506114437 67 154 0.0 1.0 0.00 0.00 0.00 88 1013.4
20260506113928 67 170 0.0 0.0 0.00 0.00 0.00 88 1013.4
20260506113428 67 170 0.0 0.0 0.00 0.00 0.00 88 1013.3
20260506112925 67 169 0.0 1.0 0.00 0.00 0.00 87 1013.0
20260506111919 67 225 0.0 0.0 0.00 0.00 0.00 87 1013.0
20260506111417 67 225 0.0 0.0 0.00 0.00 0.00 87 1013.0
20260506110904 67 225 0.0 0.0 0.00 0.00 0.00 87 1012.9
20260506110343 67 225 0.0 0.0 0.00 0.00 0.00 86 1012.9
20260506105846 67 225 0.0 0.0 0.00 0.00 0.00 86 1013.0
20260506105328 67 225 0.0 4.0 0.00 0.00 0.00 86 1012.9
20260506104828 67 225 0.0 4.0 0.00 0.00 0.00 86 1012.7
20260506103816 67 225 0.0 4.0 0.00 0.00 0.00 86 1012.6
20260506103254 68 187 0.0 4.0 0.00 0.00 0.00 86 1012.5
20260506102737 68 182 0.0 4.0 0.00 0.00 0.00 86 1012.5
20260506102238 68 185 0.0 0.0 0.00 0.00 0.00 86 1012.4
20260506101716 68 185 0.0 0.0 0.00 0.00 0.00 85 1012.4
20260506101204 68 185 0.0 1.0 0.00 0.00 0.00 85 1012.4
20260506100154 68 188 0.0 0.0 0.00 0.00 0.00 85 1012.2
20260506095637 68 188 0.0 0.0 0.00 0.00 0.00 85 1012.0
20260506095138 68 188 0.0 0.0 0.00 0.00 0.00 85 1012.1
20260506094633 68 188 0.0 0.0 0.00 0.00 0.00 85 1012.0
20260506093611 68 188 0.0 1.0 0.00 0.00 0.00 84 1011.9
20260506093109 68 188 0.0 1.0 0.00 0.00 0.00 84 1011.8
20260506092045 68 217 0.0 2.0 0.00 0.00 0.00 84 1011.5
20260506091543 68 217 0.0 2.0 0.00 0.00 0.00 84 1011.6
20260506091044 68 233 0.0 4.0 0.00 0.00 0.00 83 1011.8
20260506090546 68 233 0.0 5.0 0.00 0.00 0.00 83 1011.7
20260506090010 68 121 0.0 5.0 0.00 0.00 0.00 83 1011.5
20260506085457 68 290 0.0 2.0 0.00 0.00 0.00 83 1011.3
20260506084453 68 182 0.0 4.0 0.00 0.00 0.00 82 1011.2
20260506083928 68 182 0.0 4.0 0.00 0.00 0.00 82 1011.4
20260506083407 68 150 0.0 4.0 0.00 0.00 0.00 82 1011.4
20260506082851 68 134 0.0 3.0 0.00 0.00 0.00 82 1011.5
20260506082346 68 150 0.0 1.0 0.00 0.00 0.00 82 1011.6
20260506081844 68 149 0.0 1.0 0.00 0.00 0.00 81 1011.5
20260506081318 68 78 0.0 1.0 0.00 0.00 0.00 81 1011.5
20260506080814 68 72 0.0 1.0 0.00 0.00 0.00 81 1011.6
20260506080311 68 151 0.0 1.0 0.00 0.00 0.00 81 1011.5
20260506073117 69 143 0.0 2.0 0.00 0.00 0.00 79 1011.5
20260506072537 69 60 0.0 2.0 0.00 0.00 0.00 78 1011.5
20260506072035 69 82 0.0 1.0 0.00 0.00 0.00 78 1011.6
20260506071005 69 158 0.0 4.0 0.00 0.00 0.00 77 1011.6
20260506070516 69 179 0.0 2.0 0.00 0.00 0.00 77 1011.7
20260506062329 70 219 0.0 1.0 0.00 0.00 0.00 76 1012.1
20260506061800 70 219 0.0 6.0 0.00 0.00 0.00 76 1012.2
20260506060733 70 134 0.0 4.0 0.00 0.00 0.00 76 1012.1
20260506050955 70 211 0.0 4.0 0.00 0.00 0.00 75 1012.3
20260506050428 70 172 0.0 7.0 0.00 0.00 0.00 76 1012.2
20260506044809 70 175 0.0 4.0 0.00 0.00 0.00 75 1012.2
20260506044308 70 135 0.0 1.0 0.00 0.00 0.00 74 1012.1
20260506043802 70 130 0.0 4.0 0.00 0.00 0.00 75 1012.0
20260506043259 70 126 0.0 4.0 0.00 0.00 0.00 74 1011.9
20260506042734 70 148 0.0 1.0 0.00 0.00 0.00 74 1011.8
20260506042218 70 204 0.0 2.0 0.00 0.00 0.00 74 1011.9
20260506041204 70 180 0.0 2.0 0.00 0.00 0.00 73 1012.0
20260506040204 71 109 0.0 4.0 0.00 0.00 0.00 73 1012.0
20260506035636 71 150 0.0 3.0 0.00 0.00 0.00 73 1012.0
20260506035111 70 148 0.0 4.0 0.00 0.00 0.00 73 1012.1
20260506034057 70 153 0.0 1.0 0.00 0.00 0.00 73 1012.0
20260506033529 70 153 0.0 1.0 0.00 0.00 0.00 73 1012.0
20260506033002 70 164 0.0 1.0 0.00 0.00 0.00 72 1012.1
20260506032458 70 164 0.0 0.0 0.00 0.00 0.00 72 1012.3
20260506031955 70 159 0.0 0.0 0.00 0.00 0.00 73 1012.2
20260506031453 70 338 0.0 2.0 0.00 0.00 0.00 73 1012.1
20260506030954 69 338 0.0 2.0 0.00 0.00 0.00 74 1011.8
20260506030426 69 226 0.0 1.0 0.00 0.00 0.00 75 1011.7
20260506025357 69 168 0.0 1.0 0.00 0.00 0.00 77 1011.7
20260506024327 69 161 0.0 1.0 0.00 0.00 0.00 77 1011.7
20260506023233 69 90 0.0 0.0 0.00 0.00 0.00 78 1011.7
20260506022730 69 90 0.0 0.0 0.00 0.00 0.00 78 1011.7
20260506022205 69 90 0.0 0.0 0.00 0.00 0.00 77 1011.6
20260506021644 69 90 0.0 0.0 0.00 0.00 0.00 76 1011.5
20260506021143 69 90 0.0 0.0 0.00 0.00 0.00 76 1011.6
20260506020640 69 90 0.0 0.0 0.00 0.00 0.00 76 1011.6
20260506020137 69 90 0.0 0.0 0.00 0.00 0.00 76 1011.6
20260506015610 69 90 0.0 0.0 0.00 0.00 0.00 75 1011.6
20260506015108 70 90 0.0 0.0 0.00 0.00 0.00 75 1011.6
20260506014552 70 90 0.0 0.0 0.00 0.00 0.00 76 1011.5
20260506014052 70 90 0.0 0.0 0.00 0.00 0.00 74 1011.4
20260506013527 70 90 0.0 0.0 0.00 0.00 0.00 74 1011.5
20260506013000 70 90 0.0 0.0 0.00 0.00 0.00 73 1011.4
20260506012457 71 90 0.0 0.0 0.00 0.00 0.00 73 1011.6
20260506011932 71 90 0.0 0.0 0.00 0.00 0.00 72 1011.8
20260506011416 71 90 0.0 0.0 0.00 0.00 0.00 71 1011.8
20260506010416 71 90 0.0 0.0 0.00 0.00 0.00 72 1011.5
20260506005415 72 90 0.0 0.0 0.00 0.00 0.00 69 1011.5
20260506004913 72 90 0.0 0.0 0.00 0.00 0.00 69 1011.6
20260506003835 72 90 0.0 0.0 0.00 0.00 0.00 68 1011.3
20260506003333 73 90 0.0 0.0 0.00 0.00 0.00 68 1011.2
20260506002807 73 90 0.0 0.0 0.00 0.00 0.00 67 1011.2
20260506002242 73 153 0.0 0.0 0.00 0.00 0.00 67 1011.3
20260506001715 74 153 0.0 0.0 0.00 0.00 0.00 65 1011.4
20260506001156 74 153 0.0 0.0 0.00 0.00 0.00 66 1011.4
20260506000615 74 153 0.0 0.0 0.00 0.00 0.00 66 1011.6
20260506000106 75 153 0.0 0.0 0.00 0.00 0.00 64 1011.7
20260505235552 75 153 0.0 0.0 0.00 0.00 0.00 64 1011.7
20260505235028 75 153 0.0 0.0 0.00 0.00 0.00 66 1011.6
20260505234502 75 153 0.0 0.0 0.00 0.00 0.00 61 1011.5
20260505233957 75 153 0.0 1.0 0.00 0.00 0.00 62 1011.5
20260505233459 75 153 0.0 1.0 0.00 0.00 0.00 62 1011.6
20260505232932 75 153 0.0 0.0 0.00 0.00 0.00 62 1011.8
20260505232433 75 153 0.0 0.0 0.00 0.00 0.00 64 1011.9
20260505231400 76 154 0.0 1.0 0.00 0.00 0.00 60 1011.9
20260505230851 76 153 0.0 0.0 0.00 0.00 0.00 60 1011.9
20260505230404 76 153 0.0 0.0 0.00 0.00 0.00 61 1011.8
20260505225846 76 153 0.0 0.0 0.00 0.00 0.00 60 1011.9
20260505225345 76 153 0.0 1.0 0.00 0.00 0.00 60 1012.0
20260505224845 76 153 0.0 1.0 0.00 0.00 0.00 58 1012.0
20260505223823 76 140 0.0 4.0 0.00 0.00 0.00 59 1012.1
20260505223234 76 139 0.0 4.0 0.00 0.00 0.00 59 1012.1
20260505221719 77 115 0.0 0.0 0.00 0.00 0.00 57 1012.0
20260505221220 77 115 0.0 1.0 0.00 0.00 0.00 57 1011.9